DW3648 Granada ES current weather conditions

sailwx.info

Wind from 125

Air temperature 23.3° C
Dewpoint 10.4° C

Last reported at 2018-Jun-17 23:59 UTC.
Time now 2018-Jun-18 00:15 UTC

Location: N 37°10' W 003°35'.
View on Google Maps.

See reports from other nearby stations

  
Tides and Currents Weather Stations Pressure Air Temp Water Temp Dewpoint Dewpoint Depression Visibility Wind Speed Wind Dir Waves Ship Positions
date/time (UTC)wind fromknots sea level pressurealtimeterstation pressurevisibilityair tempwater tempwave heightnotes
2018-Jun-17 23:59 125 23.3
2018-Jun-17 23:44 126 1 gusting 5 23.9
2018-Jun-17 23:29 269 0 gusting 1 23.9
2018-Jun-17 23:14 269 0 gusting 6 24.4
2018-Jun-17 22:59 096 24.4
2018-Jun-17 22:44 096 24.4
2018-Jun-17 22:29 095 25.0
2018-Jun-17 22:14 094 25.0
2018-Jun-17 21:59 040 25.0
2018-Jun-17 21:44 100 25.6
2018-Jun-17 21:29 100 26.1
2018-Jun-17 21:14 100 26.1
2018-Jun-17 20:59 098 0 gusting 4 26.7
2018-Jun-17 20:44 240 27.8
2018-Jun-17 20:29 239 28.3
2018-Jun-17 20:14 239 28.9
2018-Jun-17 19:59 239 28.9
2018-Jun-17 19:44 239 0 gusting 4 29.4
2018-Jun-17 19:29 193 29.4
2018-Jun-17 19:14 180 0 gusting 4 29.4
2018-Jun-17 18:59 113 0 gusting 5 30.0
2018-Jun-17 18:44 097 30.0
2018-Jun-17 18:29 222 0 gusting 6 30.0
2018-Jun-17 18:14 185 30.0
2018-Jun-17 17:59 097 2 gusting 8 30.6
2018-Jun-17 17:44 180 1 gusting 7 31.1
2018-Jun-17 17:29 136 3 gusting 11 31.1
2018-Jun-17 17:14 114 2 gusting 11 31.7
2018-Jun-17 16:59 161 2 gusting 13 32.2
2018-Jun-17 16:44 169 3 gusting 10 32.8
2018-Jun-17 16:29 117 3 gusting 11 33.3
2018-Jun-17 16:14 176 4 gusting 9 34.4
2018-Jun-17 15:59 186 0 gusting 8 35.0
2018-Jun-17 15:44 118 2 gusting 7 35.0
2018-Jun-17 15:29 214 6 gusting 12 34.4
2018-Jun-17 15:14 277 4 gusting 9 34.4
2018-Jun-17 14:59 275 3 gusting 6 35.0
2018-Jun-17 14:44 218 5 gusting 10 35.0
2018-Jun-17 14:29 189 0 gusting 10 34.4
2018-Jun-17 14:14 260 6 gusting 11 34.4
2018-Jun-17 13:59 211 0 gusting 7 34.4
2018-Jun-17 13:44 277 1 gusting 6 35.6
2018-Jun-17 13:29 248 0 gusting 6 34.4
2018-Jun-17 13:14 180 33.9
2018-Jun-17 12:59 180 1 gusting 5 33.3
2018-Jun-17 12:44 259 4 gusting 9 33.3
2018-Jun-17 12:29 214 32.8
2018-Jun-17 12:14 271 3 gusting 7 32.2
2018-Jun-17 11:59 246 32.2
2018-Jun-17 11:44 284 31.7
2018-Jun-17 11:29 270 0 gusting 4 31.1
2018-Jun-17 11:13 304 30.6
2018-Jun-17 10:58 323 1 gusting 6 30.6
2018-Jun-17 10:43 282 0 gusting 6 30.0
2018-Jun-17 10:28 275 1 gusting 5 30.0
2018-Jun-17 10:13 275 1 gusting 4 29.4
2018-Jun-17 09:58 292 28.9
2018-Jun-17 09:43 294 0 gusting 4 28.3
2018-Jun-17 09:28 250 1 gusting 6 28.3
2018-Jun-17 09:13 261 27.2
2018-Jun-17 08:58 263 26.7
2018-Jun-17 08:43 263 26.1
2018-Jun-17 08:28 263 25.6
2018-Jun-17 08:13 263 24.4
2018-Jun-17 07:58 263 23.9
2018-Jun-17 07:43 286 22.8
2018-Jun-17 07:28 286 22.8
2018-Jun-17 07:13 285 22.8
2018-Jun-17 06:58 243 22.2
2018-Jun-17 06:43 242 21.1
2018-Jun-17 06:28 115 20.0
2018-Jun-17 06:13 115 18.9
2018-Jun-17 05:58 115 18.3
2018-Jun-17 05:43 115 18.3
2018-Jun-17 05:28 115 18.3
2018-Jun-17 05:13 115 18.3
2018-Jun-17 04:58 115 18.3
2018-Jun-17 04:43 115 18.3
2018-Jun-17 04:28 115 18.3
2018-Jun-17 04:13 115 18.3
2018-Jun-17 03:58 123 0 gusting 4 18.9
2018-Jun-17 03:43 124 18.9
2018-Jun-17 03:28 101 0 gusting 3 19.4
2018-Jun-17 03:13 101 19.4
2018-Jun-17 02:58 101 19.4
2018-Jun-17 02:43 101 20.0
2018-Jun-17 02:28 101 20.0
2018-Jun-17 02:12 101 20.0
2018-Jun-17 01:57 101 20.6
2018-Jun-17 01:42 101 1 gusting 4 20.6
2018-Jun-17 01:27 113 20.6
2018-Jun-17 01:12 095 1 gusting 6 20.6
2018-Jun-17 00:57 074 4 gusting 6 20.6
2018-Jun-17 00:42 082 1 gusting 6 21.1
2018-Jun-17 00:27 104 0 gusting 5 21.7
2018-Jun-17 00:12 134 1 gusting 2 21.7
2018-Jun-16 23:57 138 22.2
2018-Jun-16 23:42 138 22.2
2018-Jun-16 23:27 138 22.8
2018-Jun-16 23:12 138 22.8
2018-Jun-16 22:57 158 23.3
2018-Jun-16 22:42 158 23.9
2018-Jun-16 22:27 229 23.9
2018-Jun-16 22:12 229 23.9
2018-Jun-16 21:57 098 0 gusting 4 24.4
2018-Jun-16 21:42 125 24.4
2018-Jun-16 21:27 126 25.0
2018-Jun-16 21:12 126 25.0
2018-Jun-16 20:57 126 25.6
2018-Jun-16 20:42 177 26.7
2018-Jun-16 20:27 177 27.2
2018-Jun-16 20:12 177 27.2
2018-Jun-16 19:57 177 27.8
2018-Jun-16 19:42 177 28.3
2018-Jun-16 19:27 100 1 gusting 4 28.9
2018-Jun-16 19:12 113 1 gusting 6 29.4
2018-Jun-16 18:57 178 2 gusting 6 30.6
2018-Jun-16 18:42 270 1 gusting 6 31.1
2018-Jun-16 18:27 153 1 gusting 6 31.7
2018-Jun-16 18:12 198 1 gusting 5 31.7
2018-Jun-16 17:57 189 2 gusting 9 32.2
2018-Jun-16 17:42 186 4 gusting 7 32.8
2018-Jun-16 17:27 233 0 gusting 9 32.8
2018-Jun-16 17:12 119 0 gusting 7 33.3
2018-Jun-16 16:57 205 4 gusting 7 33.3
2018-Jun-16 16:42 226 3 gusting 7 33.9
2018-Jun-16 16:27 249 2 gusting 8 33.3
2018-Jun-16 16:12 256 3 gusting 9 33.9
2018-Jun-16 15:57 157 2 gusting 11 33.9
2018-Jun-16 15:42 180 2 gusting 7 33.9
2018-Jun-16 15:27 085 1 gusting 6 34.4
2018-Jun-16 15:12 231 2 gusting 7 35.0
2018-Jun-16 14:57 221 34.4
2018-Jun-16 14:42 263 2 gusting 6 33.3
2018-Jun-16 14:27 284 0 gusting 9 33.3
2018-Jun-16 14:12 258 0 gusting 5 33.3
2018-Jun-16 13:57 205 4 gusting 9 33.3
2018-Jun-16 13:41 207 2 gusting 7 33.3
2018-Jun-16 13:26 186 4 gusting 10 32.8
2018-Jun-16 13:11 089 2 gusting 7 32.8
2018-Jun-16 12:56 289 5 gusting 7 32.8
2018-Jun-16 12:41 215 2 gusting 8 32.2
2018-Jun-16 12:26 338 1 gusting 7 32.8
2018-Jun-16 12:11 282 32.2
2018-Jun-16 11:56 115 1 gusting 8 31.7
2018-Jun-16 11:41 182 3 gusting 8 31.7
2018-Jun-16 11:26 295 1 gusting 5 31.7
2018-Jun-16 11:11 279 3 gusting 5 31.1
2018-Jun-16 10:56 254 30.6
2018-Jun-16 10:41 199 1 gusting 4 30.0
2018-Jun-16 10:26 108 3 gusting 6 28.9
2018-Jun-16 10:11 270 0 gusting 5 28.3
2018-Jun-16 09:56 319 1 gusting 6 27.8
2018-Jun-16 09:41 311 1 gusting 6 27.2
2018-Jun-16 09:26 306 0 gusting 4 26.1
2018-Jun-16 09:11 306 0 gusting 5 26.1
2018-Jun-16 08:56 300 0 gusting 4 25.6
2018-Jun-16 08:41 300 25.0
2018-Jun-16 08:26 311 1 gusting 5 24.4
2018-Jun-16 08:11 279 24.4
2018-Jun-16 07:56 262 23.9
2018-Jun-16 07:41 248 1 gusting 4 23.9
2018-Jun-16 07:26 109 23.9
2018-Jun-16 07:10 109 22.8
2018-Jun-16 06:56 109 21.1
2018-Jun-16 06:40 109 20.0
2018-Jun-16 06:25 109 18.9
2018-Jun-16 06:10 109 17.8
2018-Jun-16 05:55 109 17.8
2018-Jun-16 05:40 109 17.8
2018-Jun-16 05:25 102 0 gusting 4 17.8
2018-Jun-16 05:10 096 17.8
2018-Jun-16 04:55 096 17.8
2018-Jun-16 04:40 095 17.8
2018-Jun-16 04:25 095 17.8
2018-Jun-16 04:10 095 18.3
2018-Jun-16 03:55 096 18.3
2018-Jun-16 03:40 096 18.3
2018-Jun-16 03:25 109 1 gusting 5 18.9
2018-Jun-16 03:10 096 2 gusting 5 18.9
2018-Jun-16 02:55 118 0 gusting 4 18.9
2018-Jun-16 02:40 119 18.9
2018-Jun-16 02:25 119 19.4
2018-Jun-16 02:10 119 19.4
2018-Jun-16 01:55 119 20.0
2018-Jun-16 01:40 119 20.0
2018-Jun-16 01:25 119 20.6
2018-Jun-16 01:10 119 20.6
2018-Jun-16 00:55 232 21.1
2018-Jun-16 00:40 229 21.7
2018-Jun-16 00:25 229 21.7
2018-Jun-16 00:10 134 22.2